This is the latest recevied weather packets stored in our database for station/object N9BID. If no packets are shown the sender has not sent any weather packets the latest 10 day(s).
| Time | Temp. | Humidity | Pressure | Rain* | Wind** | Luminosity | Snow |
|---|---|---|---|---|---|---|---|
| 1777389156 | 8.33° C | 84% | 1003.5 hPa | 0 mm | - | 216 W/m² | - |
| 1777388854 | 8.33° C | 85% | 1003.5 hPa | 0 mm | - | 164 W/m² | - |
| 1777388551 | 7.78° C | 85% | 1003.5 hPa | 0 mm | - | 564 W/m² | - |
| 1777388246 | 7.78° C | 87% | 1003.7 hPa | 0 mm | - | 321 W/m² | - |
| 1777387941 | 7.22° C | 89% | 1003.5 hPa | 0 mm | - | 520 W/m² | - |
| 1777387638 | 6.67° C | 88% | 1003.5 hPa | 0 mm | - | 272 W/m² | - |
| 1777387335 | 6.67° C | 88% | 1003.6 hPa | 0 mm | - | 233 W/m² | - |
| 1777387034 | 6.67° C | 88% | 1003.5 hPa | 0 mm | - | 174 W/m² | - |
| 1777386731 | 6.67° C | 88% | 1003.3 hPa | 0 mm | - | 174 W/m² | - |
| 1777386428 | 6.67° C | 89% | 1003 hPa | 0 mm | - | 177 W/m² | - |
| 1777386125 | 6.67° C | 89% | 1002.7 hPa | 0 mm | - | 115 W/m² | - |
| 1777385821 | 6.67° C | 89% | 1002.5 hPa | 0 mm | - | 211 W/m² | - |
| 1777385518 | 6.67° C | 89% | 1002.5 hPa | 0 mm | - | 124 W/m² | - |
| 1777385216 | 6.67° C | 88% | 1002.3 hPa | 0 mm | - | 198 W/m² | - |
| 1777384911 | 6.67° C | 89% | 1001.9 hPa | 0 mm | - | 161 W/m² | - |
| 1777384609 | 6.11° C | 89% | 1002.1 hPa | 0 mm | - | 166 W/m² | - |
| 1777384308 | 6.11° C | 90% | 1002 hPa | 0 mm | - | 149 W/m² | - |
| 1777384004 | 6.11° C | 90% | 1001.8 hPa | 0 mm | - | 127 W/m² | - |
| 1777383700 | 6.11° C | 90% | 1002 hPa | 0 mm | - | 101 W/m² | - |
| 1777383397 | 5.56° C | 90% | 1002 hPa | 0 mm | - | 96 W/m² | - |
| 1777383093 | 5.56° C | 91% | 1001.9 hPa | 0 mm | - | 78 W/m² | - |
| 1777382791 | 5.56° C | 92% | 1001.8 hPa | 0 mm | - | 59 W/m² | - |
| 1777382486 | 5.56° C | 90% | 1001.7 hPa | 0 mm | - | 55 W/m² | - |
| 1777382182 | 5.56° C | 92% | 1001.6 hPa | 0 mm | - | 53 W/m² | - |
| 1777381879 | 5.56° C | 92% | 1001.5 hPa | 0 mm | - | 52 W/m² | - |
* Rain latest hour (hover to see other rain measurements)
** Current wind speed in m/s (hover to see current wind gust speed)